[ hide orbit diagram ]
For accurate long-term ephemerides, please instead use our Horizons system.This orbit viewer was implemented using two-body methods, and hence should not be used for determining accurate long-term trajectories (over several years or decades) or planetary encounter circumstances.
Orbital Elements at Epoch 2459000.5 (2020-May-31.0) TDB
Reference: JPL 21 (heliocentric ecliptic J2000)
Element | Value | Uncertainty (1-sigma) | Units |
e | .115493427399546 | 2.9016e-08 | |
a | 2.191339290311928 | 8.2382e-09 | au |
q | 1.938254005078515 | 6.3705e-08 | au |
i | 3.621841119537755 | 3.5508e-06 | deg |
node | 146.0165755662544 | 5.3139e-05 | deg |
peri | 257.1686122900187 | 5.6651e-05 | deg |
M | 204.7015270252343 | 2.2408e-05 | deg |
tp | 2459511.625501803582 (2021-Oct-24.12550180) | 7.5434e-05 | TDB |
period | 1184.848615215864 3.24 | 6.6816e-06 1.829e-08 | d yr |
n | .3038362837048281 | 1.7134e-09 | deg/d |
Q | 2.444424575545341 | 9.1897e-09 | au |
|
| | Orbit Determination Parameters
Additional Information
|
[ show covariance matrix ]
Physical Parameter Table
Parameter |
Symbol |
Value |
Units |
Sigma |
Reference |
Notes |
absolute magnitude |
H |
15.9 |
|
n/a |
MPO381645 |
|
|
52791 (1998 QC49) Discovered 1998-Aug-17 by LINEAR at Socorro |
Reference: 20030216/Numbers.arc | Last Updated: 2004-04-19 |
|
[ hide close-approach data ]
Close-Approach Data ...sorted by Date/Time (TDB)
|
Date/Time (TDB) |
Time Uncertainty (days_HH:MM) |
Body |
Nominal Distance (au) |
Minimum Distance (au) |
Maximum Distance (au) |
V-relative (km/s) |
V-infinity (km/s) |
JD (TDB) |
Time Uncertainty (minutes) |
Semi-major axis (km) |
Semi-minor axis (km) |
range-LOV angle (deg) |
N-sigma |
BP |
Orbit Ref. |
Reference |
Modified |
1970-May-19 00:31 |
00:01 |
Iris |
0.0168600589615794 |
0.0168585679684099 |
0.0168615518837762 |
3.57959245070357 |
3.57959235545019 |
2440725.521482019 |
1.16131713330597 |
326.528114507921 |
33.33705473258 |
-78.1925273492028 |
74021.6975705335 |
T |
21 |
CATAB v2.0f-lin.ifort 2020-Nov-12 23:16:14 |
2020-Nov-12 23:16 |
2051-Jun-26 02:35 |
00:01 |
Iris |
0.0216504947562273 |
0.0216488621247959 |
0.0216521295350464 |
3.52513597475348 |
3.52513589943018 |
2470348.607714074 |
1.4500471297088 |
377.80738512051 |
31.7232880169129 |
78.5152786796765 |
99995.4334174135 |
T |
21 |
CATAB v2.0f-lin.ifort 2020-Nov-12 23:16:14 |
2020-Nov-12 23:16 |
|
|